User: anonymous   Login
Location: Unspecified
(0.0000°N, 0.0000°E)
Time: 09:29:50
(UTC+00:00)
Language:

BEESAT 4 - Orbit

View from above orbital plane
View from above orbital plane
View from above satellite
View from above satellite

Ground track
Ground track

The orbit data is extracted from the following two-line orbital elements,

1 41619U 16040W   17327.12937024 +.00002896 +00000-0 +13178-3 0  9998
2 41619 097.4436 027.8783 0010656 226.8068 133.2278 15.21470719066758
Epoch (UTC): 23 November 2017 03:06:17
Eccentricity: 0.0010656
inclination: 97.4436°
perigee height: 494 km
apogee height: 509 km
right ascension of ascending node: 27.8783°
argument of perigee: 226.8068°
revolutions per day: 15.21470719
mean anomaly at epoch: 133.2278°
orbit number at epoch: 6675

The dashed part of the orbit path shows where the satellite is in the earth's shadow,  

DLR